Temperature
25 25 24 24 24 23 23 24 24 25 25 26 26 26 26 24 23 22 21 21 20 20 19 19 18 18 17 17 16 16 15 15 15 14 14 14 14 14 14 14 13 13 13 13
24 24 24 23 24 24 23 23 24 24 24 26 26 25 25 24 23 22 22 21 21 20 20 19 19 18 18 17 16 16 16 15 15 15 15 15 14 14 14 14 14 13 13 13
24 24 23 23 25 24 24 24 24 24 25 26 26 25 24 24 23 23 22 22 21 21 20 20 19 19 18 17 17 16 16 15 15 15 15 15 15 15 15 14 14 14 14 13
23 23 22 25 25 24 24 24 25 24 24 25 25 24 23 23 23 23 22 22 21 21 20 20 20 19 18 18 17 16 16 16 16 16 16 15 15 15 15 14 14 14 14 14
22 22 23 24 25 23 23 24 25 24 24 24 23 23 24 23 22 22 22 22 21 21 21 20 20 19 18 18 17 17 16 16 16 16 16 16 15 15 15 15 15 14 14 14
22 21 22 24 24 23 23 23 24 24 23 23 23 24 26 24 22 22 22 22 21 21 21 20 20 19 18 18 17 17 17 16 16 16 16 16 16 15 15 15 15 14 14 14
21 21 23 24 22 22 22 23 22 22 22 22 22 23 23 22 21 21 22 22 22 21 21 20 19 19 18 18 18 17 17 16 16 16 16 16 16 15 15 14 14 14 14 14
21 21 22 22 21 22 23 22 21 21 21 21 21 21 21 21 21 21 21 22 22 21 21 20 20 19 18 18 18 17 17 17 17 16 16 16 15 15 14 14 14 13 13 13
22 22 22 20 20 20 19 20 20 20 20 19 20 20 20 20 20 20 21 21 21 21 20 20 20 19 18 18 18 17 17 17 17 16 16 15 15 14 14 14 13 13 12 12
20 21 21 19 19 19 18 18 18 18 18 19 19 19 19 19 20 20 20 21 21 21 20 20 20 19 18 18 18 17 17 17 16 15 15 15 15 14 13 13 13 12 12 12
19 20 20 19 18 18 17 17 17 17 18 18 18 18 19 19 19 19 20 20 20 20 20 20 20 19 19 18 18 17 16 16 16 15 15 14 14 14 13 13 13 12 11 11
18 18 18 18 17 16 16 16 16 16 16 17 17 17 18 18 18 19 19 20 20 20 20 19 19 19 19 18 18 17 16 16 15 15 15 14 14 14 13 13 12 12 11 11
15 15 15 15 15 14 14 14 15 15 15 16 16 16 17 17 18 18 19 19 20 20 20 19 19 19 19 18 17 17 16 16 15 15 14 14 13 13 12 12 11 11 11 10
12 13 13 14 13 13 13 13 14 14 14 15 15 16 16 16 17 18 18 19 19 19 19 19 19 18 18 18 17 17 16 16 15 15 14 13 13 12 11 10 10 9 10 10
11 11 12 12 12 12 12 12 12 13 13 14 14 15 15 15 16 17 17 17 18 18 18 18 18 18 18 18 17 16 16 15 15 14 14 13 12 11 11 10 9 9 8 9
10 10 10 10 11 11 11 11 11 12 12 12 13 13 14 14 15 15 16 16 17 17 18 18 18 18 18 17 17 16 15 15 15 14 13 12 12 11 10 9 9 8 8 8
9 10 10 10 10 10 10 10 10 10 11 11 11 12 13 13 14 14 15 16 16 16 17 17 17 17 17 16 16 15 15 14 14 13 12 11 11 10 9 9 8 8 7 7
8 8 8 8 8 8 9 9 9 9 10 10 10 11 12 12 13 13 14 14 14 14 15 16 16 16 16 15 15 14 14 14 13 12 11 11 10 9 8 8 8 7 7 7
7 7 7 7 7 8 8 8 8 9 9 9 10 10 11 11 12 12 13 13 13 13 14 15 15 15 15 14 14 14 13 12 12 11 10 10 9 8 8 7 7 6 6 6
7 7 7 7 7 7 7 8 8 8 8 9 9 9 10 10 11 11 11 12 12 12 13 13 14 13 13 13 13 12 12 11 11 10 9 9 8 7 7 6 6 6 6 5
6 6 6 7 7 7 7 7 7 8 8 8 8 9 9 10 10 10 10 10 11 11 11 11 12 12 12 12 11 11 10 10 9 9 8 8 7 7 6 6 6 5 5 5
6 6 6 6 6 6 7 7 7 7 7 7 8 8 8 9 9 9 9 9 10 10 10 10 10 10 11 11 10 9 9 9 8 8 7 7 6 6 6 5 5 5 4 4
6 6 6 6 6 6 6 6 6 7 7 7 7 7 8 8 8 8 8 8 8 8 9 9 9 9 9 9 8 8 8 8 7 7 7 6 6 6 5 5 5 4 4 4
5 5 6 6 6 6 6 6 6 6 6 6 7 7 7 7 7 7 7 7 7 7 7 8 8 8 8 7 7 7 7 7 6 6 6 5 5 5 5 4 4 4 3 3
5 5 5 5 5 6 6 6 6 6 6 6 6 6 6 6 6 6 6 6 6 6 6 7 7 7 6 6 6 6 6 6 6 5 5 5 5 4 4 4 3 3 3 3
5 5 5 5 5 5 5 5 5 5 5 5 5 6 6 6 6 6 6 5 5 5 5 5 5 5 5 5 5 5 5 5 5 5 5 4 4 4 4 3 3 3 3 2
5 5 5 5 5 5 5 5 5 5 5 5 5 5 5 5 5 5 5 5 5 5 5 4 4 4 4 4 5 5 5 5 4 4 4 4 4 4 3 3 3 3 2 2
Wind_Speed
11 9 8 11 12 12 15 17 19 20 20 19 17 15 13 11 10 11 12 13 13 13 13 14 14 13 13 12 11 10 10 9 9 8 7 6 5 5 5 5 5 5 5 5
13 11 10 14 16 17 18 19 20 22 23 21 18 15 14 13 12 13 14 15 15 15 14 15 15 14 14 13 12 11 11 10 8 8 7 7 6 6 6 6 6 6 6 6
14 11 10 15 14 15 14 15 16 19 20 17 16 15 14 14 13 15 15 15 15 15 15 15 15 15 14 14 13 12 12 10 9 9 8 8 7 7 7 7 7 7 7 7
13 13 16 10 4 7 12 15 15 17 18 18 17 15 13 13 13 14 14 14 14 14 14 14 14 14 14 13 13 13 12 11 10 9 8 8 7 7 7 7 7 7 7 8
10 14 15 12 8 6 8 11 8 10 13 13 12 10 10 9 11 13 12 12 12 13 14 14 14 14 14 14 14 13 12 11 11 10 9 8 8 7 7 6 7 7 7 7
10 12 12 8 3 2 6 7 6 9 10 10 7 6 6 5 6 9 9 9 10 11 13 14 14 14 15 14 14 13 12 11 10 9 8 8 7 6 5 5 6 6 6 7
14 14 11 7 1 4 6 5 9 10 11 10 7 9 11 10 7 6 7 8 10 11 12 13 14 15 15 15 14 13 11 10 9 8 8 7 5 5 5 5 5 6 6 6
10 12 9 1 2 3 5 8 10 12 13 13 13 13 11 9 6 4 6 8 10 11 11 12 14 15 15 14 12 11 10 9 9 8 6 5 5 4 4 4 4 5 5 5
8 7 3 3 4 6 8 10 12 14 15 15 15 14 12 10 7 5 6 8 10 11 11 11 13 14 15 13 12 12 11 10 8 8 6 5 5 4 3 3 3 3 3 3
9 10 9 9 8 7 9 13 15 15 16 15 15 15 13 10 8 6 7 8 9 11 12 12 13 13 13 12 13 13 12 10 9 8 7 6 4 3 2 1 1 2 2 2
16 16 15 10 9 12 15 16 17 17 16 15 15 15 14 11 9 8 7 8 10 12 13 14 13 13 12 12 13 13 12 10 9 8 7 6 5 2 2 3 2 1 1 2
19 17 16 18 18 18 18 17 17 17 17 16 14 15 14 13 10 9 8 9 11 12 13 14 14 14 13 13 14 14 12 11 8 8 7 7 7 6 8 6 8 7 6 5
17 18 19 21 19 16 16 17 17 17 17 17 16 14 14 13 11 10 10 11 12 13 14 14 14 14 14 14 14 14 12 11 8 8 8 8 7 7 7 6 7 8 8 7
14 15 17 17 16 15 16 17 16 16 15 15 14 14 13 13 12 11 12 12 12 12 13 14 15 15 15 15 14 13 12 10 9 8 8 8 7 7 6 6 5 5 6 8
12 13 14 14 14 14 14 14 14 14 15 15 14 13 13 13 13 12 11 10 10 12 13 14 15 15 15 15 15 14 12 10 9 9 8 8 7 7 6 6 5 5 5 5
11 10 10 11 12 13 13 14 14 15 15 15 15 15 14 14 14 12 10 9 11 14 14 15 16 15 16 16 15 13 11 12 11 10 9 9 8 7 7 6 6 5 4 3
9 9 10 11 12 13 13 14 14 15 16 16 16 16 15 13 13 12 10 10 12 13 13 14 14 14 16 17 16 12 12 13 14 11 10 9 9 8 8 7 6 6 5 4
8 9 9 10 11 13 14 14 15 16 16 17 17 16 14 13 12 12 10 9 10 11 12 13 14 15 16 17 15 13 13 13 12 11 10 10 9 9 8 8 8 7 6 6
7 9 10 11 12 12 14 15 16 16 17 17 16 16 14 13 13 11 9 9 10 12 11 12 14 16 17 17 15 13 13 14 13 11 11 11 10 9 8 8 8 7 6 5
8 10 12 13 13 14 15 16 16 16 16 16 16 16 15 13 12 10 9 10 10 9 9 12 16 16 16 17 16 13 14 14 13 12 12 11 10 10 9 8 7 7 6 5
10 12 13 14 15 15 15 16 16 17 17 16 15 15 15 13 11 9 8 8 8 7 9 13 13 13 14 15 16 13 14 14 13 12 12 11 10 10 9 8 8 7 6 5
12 13 15 16 16 17 16 16 16 17 17 16 15 14 13 12 10 8 9 7 6 8 9 11 11 13 16 17 13 13 13 13 12 11 11 11 10 10 9 8 7 6 5 5
13 15 16 17 17 17 17 16 16 16 15 15 14 13 12 10 8 7 7 5 5 10 10 10 12 18 20 14 12 12 13 13 12 11 10 10 9 9 8 8 7 6 5 5
16 16 17 17 17 17 17 17 16 14 15 14 12 12 10 8 7 6 5 4 6 9 8 11 17 21 19 11 11 12 12 12 11 10 10 9 9 8 8 7 7 6 5 5
16 17 17 17 16 14 15 16 15 14 13 11 11 10 8 6 6 5 4 5 8 9 8 14 20 20 13 10 11 11 11 11 10 10 10 9 9 8 7 7 6 6 5 5
16 15 14 15 14 13 12 11 11 11 10 10 9 8 6 4 4 3 3 5 9 9 9 10 13 14 11 10 11 11 10 11 11 10 9 9 9 8 7 7 7 6 5 4
16 15 13 13 12 11 11 10 10 10 9 9 9 8 6 4 3 3 4 5 7 8 9 10 11 11 10 10 10 11 10 10 10 10 9 8 8 8 7 8 6 5 5 4
Wind_Direction
272 278 266 264 261 242 241 259 270 276 278 279 280 278 274 262 245 227 217 213 208 205 203 199 199 200 199 198 197 197 200 208 214 216 216 223 230 238 245 248 257 264 268 270
268 266 262 265 265 260 255 260 267 273 275 277 280 276 267 256 241 230 223 217 212 207 203 201 200 199 197 196 196 197 204 209 209 214 214 222 231 236 242 248 255 259 262 266
274 275 273 268 265 262 258 254 260 270 279 287 281 272 264 258 244 234 228 219 211 207 203 202 201 198 196 197 193 197 204 206 205 210 214 222 228 235 240 245 249 256 259 262
274 275 266 277 291 267 266 269 271 272 281 288 286 283 273 260 248 240 230 220 212 207 201 200 198 194 194 191 192 198 203 205 205 209 214 220 227 237 244 252 253 256 262 263
262 265 269 276 273 248 256 278 308 297 297 302 303 288 266 250 242 240 233 221 211 205 197 195 192 189 188 189 193 198 202 205 204 208 214 220 227 237 245 252 256 259 263 266
247 258 266 278 300 225 255 264 353 338 329 326 317 286 299 316 263 239 227 212 199 192 190 189 186 184 189 192 194 198 200 204 205 206 211 220 230 241 244 247 257 266 267 268
246 256 264 292 319 185 242 312 358 349 341 334 311 297 315 314 292 248 214 197 186 182 184 185 179 181 192 195 199 197 194 197 198 200 207 216 225 232 241 250 261 268 272 271
246 251 261 57 146 236 321 345 341 340 339 330 316 311 313 307 293 253 206 189 183 181 181 179 179 184 194 197 193 185 183 186 191 194 197 199 206 223 239 251 259 267 276 283
254 265 347 10 319 328 336 330 334 331 329 325 317 313 312 305 291 256 219 194 187 184 179 178 183 189 195 189 181 177 178 182 185 184 183 189 195 203 218 236 262 279 288 299
270 272 293 303 308 316 324 322 322 322 321 318 313 310 306 299 286 260 228 205 192 186 185 185 184 190 194 181 176 177 180 181 181 182 179 176 175 187 199 227 256 281 306 314
276 283 291 284 309 320 321 319 317 318 316 314 309 304 300 293 281 263 236 213 201 199 196 190 184 185 184 177 177 181 182 179 180 177 170 163 148 115 130 79 45 359 342 333
273 285 291 293 304 313 314 314 316 315 313 312 308 302 298 290 281 265 243 221 210 206 201 195 187 184 180 178 181 184 183 180 175 168 163 159 147 123 71 84 81 66 41 13
279 288 288 289 296 304 305 308 310 309 308 308 307 303 296 289 282 266 248 230 218 209 203 197 190 186 180 178 182 186 182 176 170 169 166 167 165 161 148 124 107 85 69 55
283 288 284 288 294 302 305 306 305 303 304 305 306 305 299 290 281 267 252 239 227 214 204 197 192 188 181 177 179 182 178 168 166 166 167 168 170 171 170 169 162 135 101 77
284 286 287 293 297 303 308 310 310 309 311 312 312 308 303 294 284 274 264 248 228 215 206 198 193 188 178 176 177 176 171 167 164 160 161 161 160 160 160 160 155 147 140 120
295 296 301 305 308 311 314 315 314 313 314 312 311 308 304 296 289 280 266 243 224 216 208 201 196 186 176 175 173 171 166 155 156 158 158 158 159 158 158 157 154 151 144 129
299 304 312 315 317 317 317 316 313 312 313 312 310 308 304 299 291 283 271 249 235 228 214 204 195 180 176 175 171 166 160 158 160 160 161 161 160 160 158 156 153 145 131 100
298 302 306 310 314 317 318 318 316 315 313 312 310 307 302 296 288 282 275 260 241 231 219 204 188 177 176 176 172 165 161 161 166 163 159 160 158 157 156 154 152 147 140 137
314 315 317 317 316 314 313 314 314 314 314 313 310 305 299 293 289 283 272 254 237 227 215 196 175 176 175 173 166 164 162 160 161 159 158 152 158 158 158 158 157 156 154 154
319 321 320 319 317 315 312 312 311 310 312 313 309 304 300 296 291 282 265 249 238 231 208 184 177 179 174 169 165 165 162 161 159 159 159 162 164 162 162 162 162 162 163 165
314 314 313 315 314 314 313 313 311 310 310 311 307 302 298 294 288 277 262 253 243 217 194 177 179 175 169 164 166 164 162 161 161 161 162 164 165 165 166 167 168 170 171 173
310 310 310 311 311 309 311 311 309 307 307 308 306 303 298 293 287 276 261 254 231 188 180 181 179 169 162 158 164 162 161 161 161 161 164 165 167 169 171 172 174 175 178 183
305 305 305 305 306 307 306 306 306 307 306 306 306 302 296 291 284 274 266 247 211 188 184 181 168 159 158 159 160 160 160 160 161 162 164 166 168 170 172 175 178 180 186 192
297 298 299 300 301 300 301 305 306 306 304 303 302 298 292 287 282 274 268 221 194 184 185 167 160 160 159 160 159 160 160 160 160 162 163 166 169 172 173 176 179 184 190 196
291 293 294 296 297 295 297 302 304 305 304 304 305 302 291 280 276 275 260 210 183 173 168 164 162 160 160 157 159 159 160 160 159 161 165 167 170 173 175 178 184 189 195 203
287 288 288 287 289 289 291 294 296 298 300 302 305 304 296 286 273 256 230 197 180 171 165 162 163 162 163 160 160 160 159 157 159 164 166 167 171 173 176 181 185 191 196 202
285 285 285 285 285 285 284 284 286 290 294 296 299 301 295 281 256 225 203 188 176 169 164 162 164 165 163 161 163 164 164 164 166 167 168 170 172 175 177 180 184 186 188 195
Height
1482 1482 1484 1485 1484 1486 1488 1482 1482 1475 1471 1466 1463 1464 1465 1467 1468 1470 1471 1473 1474 1476 1479 1482 1485 1487 1490 1493 1495 1497 1498 1500 1501 1503 1503 1503 1503 1503 1502 1502 1501 1501 1500 1499
1483 1480 1482 1483 1479 1478 1479 1477 1475 1471 1467 1460 1459 1460 1461 1461 1463 1464 1465 1467 1469 1472 1474 1477 1480 1483 1486 1488 1491 1493 1495 1497 1498 1500 1500 1501 1501 1501 1501 1500 1500 1499 1498 1498
1483 1477 1482 1480 1470 1469 1469 1467 1468 1467 1459 1454 1454 1454 1455 1456 1456 1457 1459 1461 1463 1466 1469 1472 1475 1478 1481 1484 1487 1490 1492 1494 1495 1496 1497 1498 1498 1499 1498 1498 1498 1497 1496 1495
1482 1481 1489 1468 1461 1463 1464 1461 1459 1458 1455 1453 1452 1450 1450 1450 1450 1451 1453 1455 1457 1461 1464 1467 1471 1474 1477 1480 1483 1486 1488 1490 1492 1493 1494 1495 1496 1496 1496 1496 1495 1494 1493 1492
1481 1482 1474 1463 1459 1462 1463 1458 1455 1454 1452 1451 1449 1447 1444 1444 1444 1445 1447 1449 1452 1455 1459 1462 1466 1469 1473 1476 1479 1482 1484 1487 1488 1490 1491 1492 1493 1493 1493 1492 1492 1491 1490 1489
1479 1482 1478 1462 1457 1459 1461 1458 1455 1453 1451 1449 1448 1444 1439 1440 1440 1441 1442 1444 1447 1450 1454 1458 1461 1465 1468 1472 1475 1477 1480 1483 1485 1487 1488 1489 1489 1490 1489 1489 1488 1487 1486 1485
1475 1474 1464 1455 1457 1459 1464 1458 1455 1454 1452 1450 1448 1445 1442 1439 1438 1438 1438 1440 1443 1446 1450 1453 1457 1460 1464 1468 1471 1474 1476 1479 1481 1483 1484 1485 1486 1486 1486 1485 1484 1484 1483 1481
1469 1472 1466 1456 1458 1458 1456 1456 1455 1453 1452 1449 1446 1443 1440 1438 1436 1435 1436 1437 1440 1443 1446 1449 1452 1456 1460 1463 1467 1470 1472 1475 1477 1479 1480 1481 1482 1482 1482 1481 1481 1480 1479 1478
1462 1460 1458 1459 1459 1459 1459 1457 1455 1453 1451 1448 1444 1441 1438 1436 1434 1434 1434 1435 1437 1440 1442 1445 1448 1452 1456 1459 1462 1465 1468 1471 1473 1475 1476 1477 1478 1478 1478 1478 1478 1477 1476 1475
1462 1455 1457 1459 1459 1458 1458 1456 1454 1451 1449 1446 1442 1439 1436 1434 1432 1431 1431 1432 1434 1436 1439 1441 1444 1448 1451 1455 1458 1461 1464 1466 1469 1471 1472 1473 1474 1474 1475 1474 1474 1473 1473 1472
1461 1457 1456 1455 1456 1456 1455 1453 1450 1448 1446 1443 1439 1436 1434 1431 1430 1429 1428 1429 1430 1432 1434 1437 1440 1443 1447 1450 1453 1457 1460 1462 1464 1466 1468 1469 1470 1470 1470 1470 1470 1470 1469 1468
1458 1457 1457 1454 1454 1453 1451 1449 1446 1443 1440 1438 1436 1432 1429 1427 1426 1425 1424 1424 1425 1427 1429 1432 1435 1438 1441 1445 1448 1452 1455 1458 1460 1462 1463 1465 1466 1466 1466 1467 1467 1466 1466 1465
1459 1457 1455 1452 1450 1449 1447 1444 1441 1439 1436 1433 1430 1428 1425 1422 1420 1419 1419 1419 1420 1421 1424 1427 1430 1433 1436 1439 1443 1447 1450 1452 1454 1457 1459 1460 1462 1463 1463 1463 1464 1463 1463 1462
1455 1454 1450 1448 1446 1444 1441 1438 1436 1433 1430 1428 1425 1422 1419 1417 1415 1413 1413 1413 1414 1415 1417 1420 1423 1426 1430 1434 1437 1441 1444 1447 1449 1452 1454 1456 1458 1459 1460 1461 1461 1461 1461 1460
1450 1449 1446 1443 1441 1439 1436 1433 1430 1427 1424 1422 1419 1416 1413 1410 1408 1407 1406 1406 1407 1408 1410 1413 1416 1419 1423 1427 1431 1435 1438 1441 1444 1447 1449 1451 1453 1455 1456 1457 1459 1459 1459 1458
1446 1444 1442 1439 1437 1434 1432 1429 1426 1422 1419 1416 1413 1410 1407 1404 1402 1400 1399 1399 1400 1400 1402 1405 1408 1411 1416 1420 1424 1428 1432 1435 1439 1442 1444 1446 1449 1451 1452 1454 1456 1457 1457 1457
1442 1440 1438 1435 1433 1430 1428 1425 1422 1418 1414 1411 1407 1404 1401 1398 1395 1393 1392 1392 1393 1394 1396 1398 1401 1405 1409 1413 1418 1421 1425 1429 1433 1437 1439 1442 1444 1447 1449 1451 1452 1454 1454 1454
1440 1438 1436 1433 1430 1427 1424 1421 1417 1414 1410 1406 1402 1398 1395 1392 1389 1387 1386 1386 1386 1387 1389 1391 1394 1398 1402 1406 1411 1415 1419 1423 1427 1431 1434 1437 1440 1443 1445 1448 1449 1451 1452 1452
1436 1434 1432 1430 1427 1423 1420 1416 1412 1409 1405 1400 1396 1393 1389 1386 1384 1382 1380 1380 1379 1379 1381 1384 1387 1391 1395 1400 1404 1409 1413 1417 1422 1426 1429 1433 1436 1439 1442 1444 1446 1448 1449 1450
1433 1431 1428 1425 1422 1419 1415 1411 1407 1403 1399 1395 1391 1387 1383 1380 1378 1375 1374 1373 1373 1373 1375 1377 1381 1385 1389 1394 1399 1403 1408 1412 1417 1421 1425 1429 1432 1436 1439 1441 1443 1445 1447 1448
1430 1427 1424 1421 1418 1414 1410 1406 1402 1398 1394 1390 1386 1381 1378 1374 1372 1370 1368 1367 1367 1368 1370 1372 1375 1379 1383 1388 1394 1398 1403 1407 1412 1417 1421 1425 1429 1432 1435 1438 1440 1442 1444 1445
1426 1423 1419 1416 1412 1408 1405 1401 1397 1393 1388 1384 1380 1376 1373 1369 1367 1364 1363 1363 1362 1362 1364 1367 1370 1374 1378 1384 1389 1394 1399 1404 1408 1413 1417 1421 1425 1429 1432 1435 1437 1439 1441 1442
1420 1418 1414 1411 1407 1403 1399 1395 1392 1387 1383 1379 1375 1371 1368 1365 1362 1360 1358 1358 1357 1358 1361 1363 1367 1370 1375 1381 1386 1391 1396 1400 1405 1410 1414 1418 1422 1426 1429 1431 1434 1435 1437 1438
1415 1412 1409 1405 1401 1397 1393 1389 1386 1382 1378 1374 1370 1366 1364 1361 1358 1357 1355 1354 1354 1356 1358 1361 1364 1368 1374 1379 1383 1388 1393 1398 1402 1407 1411 1415 1419 1422 1425 1428 1430 1432 1433 1434
1408 1405 1402 1399 1395 1391 1387 1384 1380 1376 1372 1369 1365 1362 1360 1358 1356 1353 1352 1351 1352 1354 1356 1359 1363 1367 1372 1377 1382 1386 1391 1395 1400 1404 1408 1412 1416 1419 1422 1424 1426 1428 1429 1430
1401 1398 1395 1392 1389 1385 1382 1378 1375 1371 1368 1364 1361 1359 1356 1354 1352 1351 1350 1350 1351 1352 1355 1358 1362 1367 1371 1376 1380 1385 1389 1393 1398 1402 1406 1410 1413 1416 1418 1421 1423 1424 1425 1426
1393 1390 1387 1384 1381 1379 1376 1373 1370 1367 1364 1361 1358 1355 1353 1351 1350 1349 1349 1349 1350 1352 1354 1358 1362 1366 1370 1374 1379 1383 1388 1392 1396 1400 1404 1407 1410 1413 1415 1417 1419 1420 1421 1421